Regional Weather Roundup
Issued by NWS

Home | Current Version | Previous Version | Graphics & Text | Print | Product List | Glossary On
Versions: 1 2 3 4 5 6 7 8 9 10 11 12 13 14 15 16 17 18 19 20 21 22 23 24 25 26 27 28 29 30 31 32 33 34 35 36 37 38 39 40 41 42 43 44 45 46 47 48 49 50
000
ASUS45 KBOI 271810
RWRID
WEATHER ROUNDUP FOR IDAHO
NATIONAL WEATHER SERVICE BOISE ID
1100 AM MST FRI FEB 27 2015

NOTE: "FAIR" INDICATES FEW OR NO CLOUDS BELOW 12000 FEET
WITH NO SIGNIFICANT WEATHER AND/OR OBSTRUCTIONS TO VISIBILITY

IDZ012-014-271900-
SOUTHWEST IDAHO


CITY           SKY/WX    TMP DP  RH WIND       PRES   REMARKS
BOISE          PTSUNNY   44  31  60 SE18      29.77F
CALDWELL       PTSUNNY   45  28  53 SE12      29.78F
MOUNTAIN HOME  CLOUDY    42  30  61 SE21      29.77F
$$

IDZ016-017-271900-
SOUTHCENTRAL IDAHO


CITY           SKY/WX    TMP DP  RH WIND       PRES   REMARKS
JEROME         CLOUDY    36  27  69 E12       29.79S WCI  28
TWIN FALLS     CLOUDY    40  33  76 E8        29.78S WCI  34
$$

IDZ019>023-271900-
SOUTHEAST IDAHO


CITY           SKY/WX    TMP DP  RH WIND       PRES   REMARKS
IDAHO FALLS    LGT SNOW  30  23  75 NE7       29.81S WCI  23
POCATELLO      FLURRIES  32  25  75 CALM      29.81S
REXBURG        LGT SNOW  27  24  89 NE7       29.81S FOG     WCI  19
$$

IDZ006-010-011-018-031-032-271900-
CENTRAL IDAHO MOUNTAINS


CITY           SKY/WX    TMP DP  RH WIND       PRES   REMARKS
MCCALL         CLOUDY    27  26  96 CALM      29.72S
HAILEY         CLOUDY    30  27  86 E5        29.78F WCI  25
STANLEY          N/A     31  19  61 NW6       29.71F WCI  25
SALMON         CLOUDY    28  25  86 CALM      29.81F
CHALLIS        CLOUDY    32  23  69 CALM      29.75F
$$

IDZ002-004-006-007-026-271900-
NORTHERN IDAHO


CITY           SKY/WX    TMP DP  RH WIND       PRES   REMARKS
LEWISTON       MOSUNNY   43  37  79 VRB3      29.79S
LOWELL           N/A     45  29  53 CALM      29.83F
COEUR D`ALENE  SUNNY     41  28  60 NE14      29.82F
MULLAN PASS    PTSUNNY   23  18  81 E7        29.74R WCI  15
$$



USA.gov is the U.S. government's official web portal to all federal, state and local government web resources and services.